SBIRS GEO-1 (USA 230)

Last updated on Nov. 17, 2019, 4:19 a.m. UTC

1 37481U 11019A   19320.14819683  .00000001  00000-0  00000+0 0  9990
2 37481   2.3130 335.7452 0002080 249.9363 308.8252  1.00272336 31229
UTC
Height (km)
Latitude
Longitude
Inclination
Orbital Period
UTC large
Height (km)
Speed (km/s)
/
Latitude / Longitude
Inclination (degrees)
Orbital Period (minutes)
Azimuth
Elevation
Range (km)
Doppler Factor
iOS Compass Heading
iOS Angle

Next 30 passes for location: Hong Kong

Rise time Rise Azimuth (degrees) Set time Set Azimuth (degrees) Duration Max altitude (degrees)

No matching passes for this satellites